Date String (YYYY-MM-DD hh:mm:ss) UTC,Instrument flags,absolute air pressure of the measurement (hPa),sample flow rate (lpm),inlet stack bypass flow (lpm),air temperature of the measurement (°C),ambient temperature measured by the external sensor (°C),aerosol sample conditioner tube jacket temperature (°C),OPC LED temperature (°C),internal box temperature (°C),relative humidity of the measurement (%),span deviation,mass concentration of particles derived from Lorenz-Mie calculation of OPC scattering (μg/m³),mass concentration of particles derived from Lorenz-Mie calculation of OPC scattering (μg/m³),mass concentration of particles derived from Lorenz-Mie calculation of OPC scattering (μg/m³)
DateTimeUTC,F1_M11,P_M11,Q1_M11,Q2_M11,T1_M11,T2_M11,T3_M11,T4_M11,T5_M11,U1_M11,ZSPAN_M11,X0_M11,X2_M11,X1_M11
2024-04-15 20:00:00,SystemResetWarning,0813.0,4.99,000.00,025.1,024.4,000.0,033.1,027.0,005.0,0000.0,0011.39,0003.16,0001.50
2024-04-15 20:01:00,SystemResetWarning,0813.0,5.00,000.00,025.1,024.6,000.0,033.2,027.1,005.1,0000.0,0011.92,0003.22,0001.50
2024-04-15 20:02:00,SystemResetWarning,0813.0,5.00,000.00,025.2,024.7,000.0,033.2,027.2,004.5,0000.0,0014.49,0003.24,0001.50
2024-04-15 20:03:00,SystemResetWarning,0813.0,4.99,000.00,025.3,024.8,000.0,033.3,027.3,004.9,0000.0,0014.16,0003.25,0001.50
2024-04-15 20:04:00,SystemResetWarning,0813.0,5.01,000.00,025.4,024.9,000.0,033.3,027.4,004.5,0000.0,0013.78,0003.26,0001.49
2024-04-15 20:05:00,SystemResetWarning,0813.0,5.00,000.00,025.4,024.5,000.0,033.4,027.1,004.3,0000.0,0013.72,0003.21,0001.49
2024-04-15 20:06:00,SystemResetWarning,0812.8,4.99,000.00,025.1,022.6,000.0,033.5,025.9,004.5,0000.0,0013.27,0003.12,0001.46
2024-04-15 20:07:00,SystemResetWarning,0812.8,5.02,000.00,024.7,021.9,000.0,033.4,025.5,004.6,0000.0,0013.13,0003.10,0001.44
2024-04-15 20:08:00,SystemResetWarning,0812.9,5.00,000.00,024.6,022.3,000.0,033.4,025.6,004.5,0000.0,0013.76,0003.09,0001.42
2024-04-15 20:09:00,SystemResetWarning,0812.9,5.00,000.00,024.6,022.7,000.0,033.2,025.9,005.1,0000.0,0014.01,0003.13,0001.41
2024-04-15 20:10:00,SystemResetWarning,0812.9,5.00,000.00,024.7,023.0,000.0,033.2,026.3,005.1,0000.0,0013.34,0003.12,0001.38
2024-04-15 20:11:00,SystemResetWarning,0812.8,4.99,000.00,024.8,023.4,000.0,033.2,026.5,006.1,0000.0,0012.20,0003.06,0001.35
2024-04-15 20:12:00,SystemResetWarning,0812.8,5.00,000.00,024.8,023.7,000.0,033.1,026.6,005.7,0000.0,0010.75,0002.96,0001.34
2024-04-15 20:13:00,SystemResetWarning,0812.8,5.01,000.00,024.9,023.9,000.0,033.2,026.8,005.9,0000.0,0008.80,0003.04,0001.35
2024-04-15 20:14:00,SystemResetWarning,0812.8,5.01,000.00,025.0,024.2,000.0,033.2,026.9,005.2,0000.0,0010.52,0003.21,0001.38
2024-04-15 20:15:00,SystemResetWarning,0812.8,4.98,000.00,025.1,024.4,000.0,033.2,027.0,004.8,0000.0,0011.37,0003.31,0001.40
2024-04-15 20:16:00,SystemResetWarning,0812.7,4.99,000.00,025.2,024.5,000.0,033.2,027.1,005.1,0000.0,0011.58,0003.37,0001.40
2024-04-15 20:17:00,SystemResetWarning,0812.8,5.01,000.00,025.3,024.7,000.0,033.3,027.2,005.4,0000.0,0011.80,0003.43,0001.40
2024-04-15 20:18:00,SystemResetWarning,0812.8,5.01,000.00,025.4,024.8,000.0,033.3,027.3,005.5,0000.0,0012.00,0003.48,0001.41
2024-04-15 20:19:00,SystemResetWarning,0812.8,5.01,000.00,025.4,024.8,000.0,033.4,027.3,005.2,0000.0,0012.82,0003.59,0001.42
2024-04-15 20:20:00,SystemResetWarning,0812.8,4.98,000.00,025.3,023.3,000.0,033.5,026.4,005.2,0000.0,0013.08,0003.64,0001.45
2024-04-15 20:21:00,SystemResetWarning,0812.7,5.01,000.00,024.8,021.9,000.0,033.5,025.5,005.9,0000.0,0013.60,0003.67,0001.45
2024-04-15 20:22:00,SystemResetWarning,0812.7,5.01,000.00,024.7,022.1,000.0,033.4,025.5,005.0,0000.0,0013.89,0003.70,0001.48
2024-04-15 20:23:00,SystemResetWarning,0812.6,5.00,000.00,024.6,022.5,000.0,033.3,025.7,005.2,0000.0,0014.42,0003.69,0001.48
2024-04-15 20:24:00,SystemResetWarning,0812.6,5.00,000.00,024.7,022.9,000.0,033.2,026.1,005.8,0000.0,0014.59,0003.63,0001.47
2024-04-15 20:25:00,SystemResetWarning,0812.6,5.01,000.00,024.7,023.2,000.0,033.2,026.4,005.9,0000.0,0013.21,0003.50,0001.43
2024-04-15 20:26:00,SystemResetWarning,0812.7,5.01,000.00,024.8,023.5,000.0,033.2,026.6,006.8,0000.0,0012.54,0003.41,0001.42
2024-04-15 20:27:00,SystemResetWarning,0812.6,4.99,000.00,024.9,023.8,000.0,033.2,026.7,006.1,0000.0,0012.63,0003.40,0001.43
2024-04-15 20:28:00,SystemResetWarning,0812.7,4.99,000.00,025.0,024.1,000.0,033.2,026.9,006.3,0000.0,0013.78,0003.39,0001.44
2024-04-15 20:29:00,SystemResetWarning,0812.7,5.00,000.00,025.1,024.3,000.0,033.2,027.0,005.9,0000.0,0013.85,0003.37,0001.45
2024-04-15 20:30:00,SystemResetWarning,0812.7,5.00,000.00,025.1,024.5,000.0,033.2,027.1,005.7,0000.0,0013.53,0003.27,0001.46
2024-04-15 20:31:00,SystemResetWarning,0812.7,5.01,000.00,025.2,024.6,000.0,033.3,027.2,005.8,0000.0,0013.89,0003.19,0001.45
2024-04-15 20:32:00,SystemResetWarning,0812.6,5.01,000.00,025.3,024.8,000.0,033.3,027.2,005.8,0000.0,0014.54,0003.17,0001.45
2024-04-15 20:33:00,SystemResetWarning,0812.6,4.99,000.00,025.4,024.9,000.0,033.3,027.3,005.6,0000.0,0015.29,0003.18,0001.47
2024-04-15 20:34:00,SystemResetWarning,0812.7,4.98,000.00,025.3,024.0,000.0,033.4,026.7,005.5,0000.0,0015.60,0003.22,0001.49
2024-04-15 20:35:00,SystemResetWarning,0812.8,5.01,000.00,025.0,022.0,000.0,033.5,025.6,006.2,0000.0,0015.56,0003.27,0001.52
2024-04-15 20:36:00,SystemResetWarning,0812.9,5.01,000.00,024.6,021.6,000.0,033.4,025.3,006.3,0000.0,0015.15,0003.28,0001.53
2024-04-15 20:37:00,SystemResetWarning,0812.9,4.99,000.00,024.5,022.0,000.0,033.3,025.5,005.9,0000.0,0014.75,0003.27,0001.55
2024-04-15 20:38:00,SystemResetWarning,0812.8,5.00,000.00,024.5,022.4,000.0,033.2,025.8,005.8,0000.0,0014.73,0003.25,0001.55
2024-04-15 20:39:00,SystemResetWarning,0812.7,5.00,000.00,024.6,022.8,000.0,033.1,026.1,005.8,0000.0,0014.73,0003.22,0001.57
2024-04-15 20:40:00,SystemResetWarning,0812.6,5.00,000.00,024.7,023.2,000.0,033.1,026.4,006.1,0000.0,0014.88,0003.19,0001.59
2024-04-15 20:41:00,SystemResetWarning,0812.6,5.01,000.00,024.7,023.5,000.0,033.1,026.5,006.0,0000.0,0014.61,0003.16,0001.58
2024-04-15 20:42:00,SystemResetWarning,0812.6,4.99,000.00,024.8,023.7,000.0,033.1,026.6,006.0,0000.0,0013.58,0003.14,0001.58
2024-04-15 20:43:00,SystemResetWarning,0812.5,5.00,000.00,024.9,024.0,000.0,033.1,026.8,005.7,0000.0,0012.70,0003.17,0001.60
2024-04-15 20:44:00,SystemResetWarning,0812.5,5.00,000.00,025.0,024.2,000.0,033.1,026.9,005.3,0000.0,0012.89,0003.16,0001.59
2024-04-15 20:45:00,SystemResetWarning,0812.4,5.00,000.00,025.0,024.4,000.0,033.1,027.0,005.3,0000.0,0012.23,0003.15,0001.59
2024-04-15 20:46:00,SystemResetWarning,0812.4,5.01,000.00,025.1,024.5,000.0,033.2,027.0,005.4,0000.0,0011.51,0003.14,0001.59
2024-04-15 20:47:00,SystemResetWarning,0812.4,4.99,000.00,025.2,024.7,000.0,033.2,027.2,005.6,0000.0,0011.87,0003.13,0001.60
2024-04-15 20:48:00,SystemResetWarning,0812.4,5.00,000.00,025.3,024.8,000.0,033.3,027.3,005.6,0000.0,0011.97,0003.08,0001.59
2024-04-15 20:49:00,SystemResetWarning,0812.4,5.00,000.00,025.4,024.9,000.0,033.3,027.3,006.0,0000.0,0011.98,0003.07,0001.58
2024-04-15 20:50:00,SystemResetWarning,0812.4,4.99,000.00,025.3,024.0,000.0,033.4,026.7,006.1,0000.0,0011.75,0003.10,0001.58
2024-04-15 20:51:00,SystemResetWarning,0812.3,5.01,000.00,024.9,022.0,000.0,033.4,025.5,005.9,0000.0,0010.90,0003.09,0001.57
2024-04-15 20:52:00,SystemResetWarning,0812.3,5.02,000.00,024.6,021.7,000.0,033.4,025.2,006.2,0000.0,0010.36,0003.11,0001.56
2024-04-15 20:53:00,SystemResetWarning,0812.3,5.00,000.00,024.5,022.1,000.0,033.3,025.5,005.9,0000.0,0010.32,0003.11,0001.57
2024-04-15 20:54:00,SystemResetWarning,0812.2,5.00,000.00,024.5,022.5,000.0,033.2,025.8,006.1,0000.0,0011.09,0003.01,0001.56
2024-04-15 20:55:00,SystemResetWarning,0812.3,5.01,000.00,024.6,022.9,000.0,033.1,026.1,006.0,0000.0,0010.66,0002.95,0001.54
2024-04-15 20:56:00,SystemResetWarning,0812.4,5.00,000.00,024.7,023.2,000.0,033.1,026.4,005.9,0000.0,0011.27,0002.90,0001.53
2024-04-15 20:57:00,SystemResetWarning,0812.3,4.98,000.00,024.7,023.6,000.0,033.1,026.6,005.2,0000.0,0011.53,0002.88,0001.51
2024-04-15 20:58:00,SystemResetWarning,0812.2,5.00,000.00,024.8,023.8,000.0,033.1,026.7,005.1,0000.0,0012.09,0002.82,0001.47
2024-04-15 20:59:00,SystemResetWarning,0812.1,5.00,000.00,024.9,024.1,000.0,033.1,026.8,005.3,0000.0,0012.84,0002.83,0001.45
